This is the latest recevied weather packets stored in our database for station/object KD9JJA. If no packets are shown the sender has not sent any weather packets the latest 10 day(s).
| Time | Temp. | Humidity | Pressure | Rain* | Wind** | Luminosity | Snow |
|---|---|---|---|---|---|---|---|
| 1777932121 | 23.89° C | 52% | 1006.8 hPa | 0 mm | - | 54 W/m² | - |
| 1777931817 | 23.89° C | 54% | 1007.1 hPa | 0 mm | - | 64 W/m² | - |
| 1777931514 | 23.89° C | 49% | 1007 hPa | 0 mm | - | 97 W/m² | - |
| 1777931210 | 23.89° C | 50% | 1007 hPa | 0 mm | - | 63 W/m² | - |
| 1777930906 | 23.89° C | 48% | 1007.1 hPa | 0 mm | - | 81 W/m² | - |
| 1777930603 | 23.89° C | 47% | 1007.1 hPa | 0 mm | - | 98 W/m² | - |
| 1777930300 | 23.89° C | 48% | 1007 hPa | 0 mm | - | 82 W/m² | - |
| 1777929996 | 23.89° C | 47% | 1007 hPa | 0 mm | - | 90 W/m² | - |
| 1777929693 | 23.89° C | 48% | 1007.3 hPa | 0 mm | - | 83 W/m² | - |
| 1777929390 | 23.89° C | 47% | 1007.3 hPa | 0 mm | - | 88 W/m² | - |
| 1777929087 | 23.89° C | 49% | 1007.3 hPa | 0 mm | - | 89 W/m² | - |
| 1777928785 | 23.89° C | 46% | 1007.5 hPa | 0 mm | - | 92 W/m² | - |
| 1777928480 | 23.89° C | 49% | 1007.6 hPa | 0 mm | - | 82 W/m² | - |
| 1777928179 | 24.44° C | 48% | 1007.6 hPa | 0 mm | - | 53 W/m² | - |
| 1777927876 | 24.44° C | 49% | 1007.6 hPa | 0 mm | - | 93 W/m² | - |
| 1777927574 | 24.44° C | 50% | 1007.4 hPa | 0 mm | - | 139 W/m² | - |
| 1777927273 | 24.44° C | 49% | 1007.7 hPa | 0 mm | - | 118 W/m² | - |
| 1777926970 | 24.44° C | 49% | 1007.6 hPa | 0 mm | - | 99 W/m² | - |
| 1777926663 | 24.44° C | 48% | 1007.7 hPa | 0 mm | - | 83 W/m² | - |
| 1777926357 | 24.44° C | 48% | 1007.6 hPa | 0 mm | - | 232 W/m² | - |
| 1777926055 | 24.44° C | 50% | 1007.5 hPa | 0 mm | - | 121 W/m² | - |
| 1777925751 | 24.44° C | 51% | 1007.6 hPa | 0 mm | - | 212 W/m² | - |
| 1777925449 | 23.89° C | 58% | 1007.3 hPa | 0 mm | - | 98 W/m² | - |
| 1777925145 | 23.33° C | 64% | 1007.7 hPa | 0 mm | - | 154 W/m² | - |
| 1777924842 | 23.33° C | 64% | 1007.5 hPa | 0 mm | - | 155 W/m² | - |
* Rain latest hour (hover to see other rain measurements)
** Current wind speed in m/s (hover to see current wind gust speed)